Total_Precipitation_Accumulation
0.14 0.13 0.13 0.17 0.20 0.25 0.30 0.37 0.53 0.68 0.83 0.95 1.08 1.34 1.50 1.59 1.55 1.55 1.62 1.50 1.29 1.33 1.37 1.24 1.35 1.30 1.13 1.04 0.85 0.82 0.76 0.55 0.35 0.51 0.52 0.26 0.11 0.06 0.05 0.04 0.02 0.02 0.02
0.07 0.06 0.07 0.09 0.12 0.15 0.22 0.29 0.43 0.66 0.88 1.10 1.29 1.48 1.78 1.92 1.91 1.98 1.91 1.86 1.73 1.70 1.58 1.55 1.68 1.66 1.65 1.64 1.35 1.29 1.22 0.88 0.56 0.82 1.04 0.68 0.42 0.19 0.09 0.07 0.05 0.04 0.04
0.07 0.06 0.05 0.06 0.07 0.09 0.14 0.21 0.33 0.55 0.85 1.16 1.40 1.58 1.80 2.05 2.13 2.02 1.97 2.02 2.08 2.09 1.95 1.88 1.92 1.86 1.82 1.92 1.86 1.69 1.60 1.40 1.02 0.89 1.05 0.95 0.81 0.57 0.18 0.10 0.10 0.10 0.10
0.10 0.08 0.06 0.06 0.07 0.10 0.13 0.17 0.31 0.46 0.69 0.96 1.27 1.49 1.74 2.03 2.10 2.05 2.02 2.05 2.15 2.22 2.16 2.10 2.11 2.04 1.90 1.89 1.92 1.84 1.85 1.88 1.55 1.24 1.01 0.84 0.83 0.80 0.51 0.24 0.15 0.19 0.20
0.15 0.12 0.10 0.10 0.12 0.14 0.18 0.24 0.37 0.50 0.71 0.95 1.26 1.53 1.71 1.86 2.02 2.03 1.95 1.86 1.88 1.90 1.89 1.99 2.09 2.04 1.97 1.93 2.01 2.03 2.06 1.93 1.77 1.57 1.43 1.29 1.10 0.80 0.75 0.63 0.38 0.26 0.24
0.14 0.17 0.21 0.22 0.22 0.24 0.29 0.37 0.48 0.68 0.83 0.94 1.08 1.20 1.39 1.65 1.76 1.85 1.88 1.86 1.80 1.68 1.64 1.72 1.82 1.88 1.87 1.84 1.81 1.86 1.90 1.91 1.91 1.76 1.56 1.47 1.36 1.24 1.11 0.83 0.62 0.48 0.29
0.25 0.33 0.43 0.40 0.37 0.40 0.49 0.55 0.61 0.70 0.76 0.75 0.82 0.92 1.06 1.23 1.33 1.46 1.64 1.67 1.67 1.59 1.55 1.54 1.63 1.70 1.69 1.73 1.81 1.73 1.69 1.75 1.79 1.74 1.65 1.59 1.42 1.27 1.26 1.07 0.83 0.69 0.42
0.39 0.54 0.65 0.70 0.64 0.62 0.64 0.60 0.61 0.58 0.59 0.62 0.68 0.73 0.78 0.87 0.96 1.02 1.16 1.28 1.26 1.21 1.17 1.22 1.33 1.50 1.58 1.64 1.70 1.68 1.61 1.58 1.55 1.57 1.59 1.58 1.52 1.31 1.19 1.15 1.15 1.00 0.76
0.57 0.73 0.86 0.93 0.87 0.78 0.72 0.67 0.67 0.63 0.57 0.58 0.64 0.68 0.71 0.73 0.72 0.74 0.73 0.79 0.86 0.88 0.88 0.92 1.04 1.19 1.32 1.38 1.42 1.49 1.49 1.46 1.41 1.42 1.42 1.39 1.43 1.36 1.19 1.11 1.09 1.13 0.98
0.80 0.91 0.98 0.97 0.96 0.99 0.93 0.76 0.70 0.70 0.65 0.72 0.72 0.67 0.64 0.62 0.57 0.59 0.64 0.64 0.71 0.79 0.83 0.81 0.84 0.93 1.02 1.12 1.19 1.26 1.31 1.25 1.18 1.17 1.19 1.25 1.31 1.36 1.33 1.28 1.21 1.18 1.08
1.00 1.02 1.08 1.01 0.89 0.89 0.87 0.84 0.79 0.73 0.74 0.79 0.78 0.67 0.63 0.62 0.59 0.54 0.55 0.61 0.70 0.76 0.74 0.78 0.82 0.80 0.87 0.92 0.98 1.09 1.19 1.14 1.10 1.03 1.02 1.12 1.16 1.33 1.40 1.35 1.25 1.20 1.12
0.94 0.98 1.04 0.97 0.81 0.77 0.68 0.71 0.79 0.79 0.85 0.85 0.77 0.68 0.66 0.68 0.72 0.69 0.61 0.58 0.65 0.65 0.71 0.79 0.76 0.73 0.76 0.78 0.87 0.98 1.03 1.03 0.95 0.87 0.86 0.93 0.99 1.13 1.26 1.36 1.27 1.21 1.13
0.73 0.72 0.73 0.80 0.76 0.72 0.64 0.70 0.76 0.81 0.85 0.86 0.84 0.74 0.63 0.64 0.67 0.66 0.58 0.54 0.56 0.57 0.67 0.72 0.77 0.72 0.66 0.71 0.76 0.82 0.83 0.75 0.69 0.68 0.69 0.73 0.79 0.89 1.02 1.15 1.24 1.21 1.13
0.52 0.50 0.46 0.52 0.55 0.57 0.62 0.66 0.77 0.89 0.93 0.91 0.84 0.81 0.74 0.73 0.67 0.54 0.48 0.49 0.49 0.48 0.52 0.58 0.62 0.66 0.62 0.60 0.62 0.64 0.72 0.66 0.55 0.48 0.47 0.52 0.56 0.62 0.75 0.88 1.03 1.14 1.18
0.37 0.35 0.32 0.32 0.34 0.37 0.45 0.52 0.65 0.81 0.93 0.97 0.92 0.85 0.79 0.68 0.59 0.52 0.43 0.40 0.37 0.36 0.41 0.52 0.64 0.69 0.66 0.66 0.66 0.58 0.60 0.64 0.61 0.53 0.45 0.41 0.41 0.46 0.53 0.64 0.83 0.97 1.09
0.27 0.24 0.24 0.21 0.23 0.29 0.36 0.36 0.48 0.63 0.74 0.79 0.80 0.81 0.77 0.61 0.53 0.45 0.37 0.32 0.31 0.30 0.33 0.40 0.50 0.64 0.63 0.73 0.72 0.64 0.59 0.60 0.58 0.56 0.57 0.56 0.50 0.39 0.31 0.31 0.43 0.60 0.79
0.23 0.21 0.20 0.21 0.23 0.30 0.31 0.32 0.41 0.52 0.57 0.61 0.64 0.66 0.61 0.48 0.43 0.33 0.29 0.29 0.29 0.30 0.32 0.36 0.46 0.60 0.74 0.71 0.57 0.64 0.62 0.58 0.57 0.52 0.52 0.58 0.57 0.60 0.49 0.38 0.32 0.34 0.44
0.16 0.21 0.18 0.17 0.19 0.24 0.29 0.37 0.40 0.41 0.41 0.45 0.49 0.47 0.47 0.42 0.35 0.27 0.26 0.27 0.28 0.31 0.33 0.36 0.40 0.45 0.59 0.57 0.48 0.64 0.63 0.64 0.63 0.58 0.57 0.61 0.61 0.60 0.71 0.68 0.59 0.50 0.48
0.07 0.10 0.09 0.09 0.10 0.10 0.11 0.14 0.17 0.19 0.23 0.30 0.36 0.40 0.40 0.36 0.31 0.26 0.32 0.38 0.36 0.34 0.34 0.33 0.35 0.37 0.42 0.47 0.42 0.51 0.62 0.69 0.68 0.60 0.58 0.62 0.59 0.73 0.78 0.70 0.66 0.62 0.56
0.02 0.03 0.03 0.03 0.03 0.02 0.02 0.03 0.05 0.09 0.13 0.19 0.24 0.28 0.31 0.34 0.38 0.46 0.53 0.54 0.50 0.41 0.38 0.36 0.34 0.36 0.37 0.47 0.33 0.41 0.55 0.64 0.71 0.66 0.59 0.76 0.71 0.70 0.62 0.51 0.62 0.68 0.62
0.00 0.00 0.01 0.01 0.00 0.00 0.00 0.00 0.01 0.02 0.02 0.04 0.10 0.18 0.29 0.35 0.44 0.56 0.58 0.57 0.51 0.42 0.37 0.35 0.33 0.33 0.41 0.55 0.47 0.48 0.56 0.63 0.70 0.73 0.73 0.69 0.74 0.56 0.49 0.48 0.53 0.66 0.66
0.00 0.00 0.00 0.00 0.00 0.00 0.00 0.00 0.00 0.00 0.01 0.03 0.07 0.13 0.20 0.29 0.42 0.51 0.50 0.49 0.48 0.45 0.41 0.40 0.38 0.39 0.49 0.56 0.55 0.53 0.56 0.59 0.66 0.68 0.60 0.56 0.58 0.43 0.37 0.34 0.41 0.51 0.51
0.00 0.00 0.00 0.00 0.00 0.00 0.00 0.00 0.00 0.00 0.00 0.01 0.02 0.06 0.11 0.22 0.36 0.39 0.39 0.42 0.45 0.44 0.43 0.41 0.38 0.37 0.42 0.50 0.59 0.51 0.43 0.41 0.48 0.49 0.47 0.42 0.36 0.32 0.27 0.27 0.33 0.36 0.44
0.00 0.00 0.00 0.00 0.00 0.00 0.00 0.00 0.00 0.00 0.00 0.00 0.00 0.01 0.02 0.05 0.10 0.15 0.20 0.26 0.31 0.32 0.32 0.35 0.39 0.41 0.41 0.40 0.43 0.44 0.41 0.36 0.34 0.31 0.23 0.23 0.24 0.27 0.28 0.28 0.28 0.31 0.46
0.00 0.00 0.00 0.00 0.00 0.00 0.00 0.00 0.00 0.00 0.00 0.00 0.00 0.01 0.02 0.03 0.04 0.06 0.09 0.12 0.15 0.19 0.25 0.30 0.34 0.34 0.38 0.37 0.37 0.39 0.40 0.44 0.47 0.46 0.35 0.27 0.24 0.25 0.26 0.28 0.33 0.42 0.51
0.00 0.00 0.00 0.00 0.00 0.00 0.00 0.00 0.00 0.00 0.00 0.00 0.00 0.00 0.01 0.01 0.01 0.02 0.03 0.04 0.06 0.09 0.12 0.15 0.18 0.18 0.24 0.31 0.32 0.34 0.36 0.38 0.44 0.47 0.46 0.44 0.44 0.42 0.38 0.35 0.32 0.36 0.41